Location: Étavigny
(49.1201°N, 2.9800°E)
Time: 18:29:06
(UTC+00:00)

Cosmos 407 Rocket - Pass Details

Date: 28 January 2023
Orbit: 742 x 785 km, 74.0° (Epoch: 25 March)

Event Time Altitude Azimuth Distance (km) Brightness Sun altitude
Rises 17:39:20 0° 170° (S) 3,199 6.8 -10.2°
Reaches altitude 10° 17:41:57 10° 159° (SSE) 2,272 5.9 -10.6°
Maximum altitude 17:46:20 29° 101° (E) 1,355 4.3 -11.3°
Enters shadow 17:50:21 12° 44° (NE) 2,154 5.3 -11.9°
